Date String (YYYY-MM-DD hh:mm:ss) UTC,Instrument flags,absolute air pressure of the measurement (hPa),sample flow rate (lpm),inlet stack bypass flow (lpm),air temperature of the measurement (°C),ambient temperature measured by the external sensor (°C),aerosol sample conditioner tube jacket temperature (°C),OPC LED temperature (°C),internal box temperature (°C),relative humidity of the measurement (%),span deviation,mass concentration of particles derived from Lorenz-Mie calculation of OPC scattering (μg/m³),mass concentration of particles derived from Lorenz-Mie calculation of OPC scattering (μg/m³),mass concentration of particles derived from Lorenz-Mie calculation of OPC scattering (μg/m³)
DateTimeUTC,F1_M11,P_M11,Q1_M11,Q2_M11,T1_M11,T2_M11,T3_M11,T4_M11,T5_M11,U1_M11,ZSPAN_M11,X0_M11,X2_M11,X1_M11
2023-12-08 01:00:00,SystemResetWarning,0819.1,5.00,000.00,025.1,024.1,000.0,033.6,026.1,9.9,0000.0,0004.46,0001.48,0001.06
2023-12-08 01:01:00,SystemResetWarning,0819.0,5.00,000.00,025.1,024.0,000.0,033.6,026.1,9.9,0000.0,0004.35,0001.46,0001.06
2023-12-08 01:02:00,SystemResetWarning,0818.8,5.00,000.00,025.1,024.0,000.0,033.6,026.2,9.9,0000.0,0004.47,0001.50,0001.05
2023-12-08 01:03:00,SystemResetWarning,0819.0,5.00,000.00,025.1,024.0,000.0,033.6,026.3,10.0,0000.0,0004.45,0001.50,0001.05
2023-12-08 01:04:00,SystemResetWarning,0818.8,5.00,000.00,025.1,024.1,000.0,033.5,026.4,10.0,0000.0,0004.28,0001.48,0001.05
2023-12-08 01:05:00,SystemResetWarning,0818.7,5.00,000.00,025.1,024.1,000.0,033.5,026.4,9.9,0000.0,0003.98,0001.45,0001.05
2023-12-08 01:06:00,SystemResetWarning,0818.8,5.00,000.00,025.1,024.1,000.0,033.5,026.4,9.9,0000.0,0003.41,0001.44,0001.04
2023-12-08 01:07:00,SystemResetWarning,0818.9,5.01,000.00,025.1,024.1,000.0,033.5,026.4,10.0,0000.0,0002.82,0001.43,0001.04
2023-12-08 01:08:00,SystemResetWarning,0819.1,4.99,000.00,025.1,024.1,000.0,033.5,026.5,10.0,0000.0,0002.83,0001.44,0001.04
2023-12-08 01:09:00,SystemResetWarning,0819.2,4.99,000.00,025.1,024.2,000.0,033.5,026.5,10.0,0000.0,0003.84,0001.44,0001.04
2023-12-08 01:10:00,SystemResetWarning,0819.0,4.99,000.00,025.1,024.2,000.0,033.5,026.5,9.9,0000.0,0004.02,0001.41,0001.03
2023-12-08 01:11:00,SystemResetWarning,0818.8,4.99,000.00,025.1,024.2,000.0,033.5,026.5,9.8,0000.0,0004.08,0001.43,0001.03
2023-12-08 01:12:00,SystemResetWarning,0818.9,4.99,000.00,025.1,024.2,000.0,033.5,026.5,9.9,0000.0,0003.94,0001.39,0001.02
2023-12-08 01:13:00,SystemResetWarning,0818.8,5.00,000.00,025.1,024.1,000.0,033.5,026.5,9.8,0000.0,0003.86,0001.37,0001.02
2023-12-08 01:14:00,SystemResetWarning,0819.1,5.00,000.00,025.1,024.1,000.0,033.5,026.5,9.9,0000.0,0003.86,0001.37,0001.02
2023-12-08 01:15:00,SystemResetWarning,0819.0,4.99,000.00,025.1,024.2,000.0,033.5,026.5,10.0,0000.0,0004.34,0001.34,0001.00
2023-12-08 01:16:00,SystemResetWarning,0819.0,4.99,000.00,025.2,024.2,000.0,033.5,026.5,9.9,0000.0,0004.28,0001.33,0001.01
2023-12-08 01:17:00,SystemResetWarning,0818.8,5.00,000.00,025.2,024.2,000.0,033.5,026.5,9.7,0000.0,0004.27,0001.32,0001.01
2023-12-08 01:18:00,SystemResetWarning,0818.8,5.00,000.00,025.2,024.2,000.0,033.5,026.5,9.7,0000.0,0004.36,0001.34,0001.01
2023-12-08 01:19:00,SystemResetWarning,0819.3,5.00,000.00,025.2,024.2,000.0,033.5,026.5,9.7,0000.0,0004.46,0001.35,0001.01
2023-12-08 01:20:00,SystemResetWarning,0819.1,5.00,000.00,025.2,024.2,000.0,033.5,026.5,9.7,0000.0,0003.69,0001.37,0001.02
2023-12-08 01:21:00,SystemResetWarning,0818.9,5.01,000.00,025.2,024.2,000.0,033.5,026.5,9.8,0000.0,0003.11,0001.38,0001.02
2023-12-08 01:22:00,SystemResetWarning,0819.0,5.01,000.00,025.2,024.2,000.0,033.5,026.5,9.6,0000.0,0003.46,0001.33,0001.01
2023-12-08 01:23:00,SystemResetWarning,0819.0,4.99,000.00,025.2,024.2,000.0,033.5,026.6,9.6,0000.0,0004.20,0001.34,0001.01
2023-12-08 01:24:00,SystemResetWarning,0818.9,4.99,000.00,025.2,024.2,000.0,033.5,026.6,9.6,0000.0,0004.64,0001.35,0001.02
2023-12-08 01:25:00,SystemResetWarning,0819.2,5.01,000.00,025.2,024.2,000.0,033.5,026.6,9.5,0000.0,0005.74,0001.33,0001.01
2023-12-08 01:26:00,SystemResetWarning,0819.1,5.01,000.00,025.2,024.2,000.0,033.5,026.6,9.5,0000.0,0005.30,0001.35,0001.02
2023-12-08 01:27:00,SystemResetWarning,0818.8,5.00,000.00,025.2,024.2,000.0,033.5,026.5,9.5,0000.0,0005.19,0001.34,0001.03
2023-12-08 01:28:00,SystemResetWarning,0818.8,4.99,000.00,025.2,024.2,000.0,033.5,026.5,9.6,0000.0,0005.19,0001.36,0001.03
2023-12-08 01:29:00,SystemResetWarning,0818.8,4.99,000.00,025.2,024.2,000.0,033.5,026.5,9.6,0000.0,0005.09,0001.35,0001.02
2023-12-08 01:30:00,SystemResetWarning,0819.1,5.00,000.00,025.2,024.2,000.0,033.5,026.5,9.7,0000.0,0005.23,0001.41,0001.03
2023-12-08 01:31:00,SystemResetWarning,0819.0,5.00,000.00,025.2,024.2,000.0,033.5,026.6,9.6,0000.0,0006.59,0001.43,0001.04
2023-12-08 01:32:00,SystemResetWarning,0819.0,5.01,000.00,025.2,024.2,000.0,033.5,026.5,9.6,0000.0,0006.55,0001.41,0001.04
2023-12-08 01:33:00,SystemResetWarning,0818.9,5.00,000.00,025.2,024.2,000.0,033.5,026.5,9.5,0000.0,0006.54,0001.45,0001.05
2023-12-08 01:34:00,SystemResetWarning,0818.7,4.99,000.00,025.2,024.2,000.0,033.5,026.5,9.5,0000.0,0005.40,0001.50,0001.06
2023-12-08 01:35:00,SystemResetWarning,0819.3,4.99,000.00,025.2,024.2,000.0,033.5,026.6,9.6,0000.0,0005.46,0001.51,0001.07
2023-12-08 01:36:00,SystemResetWarning,0819.1,4.99,000.00,025.2,024.2,000.0,033.5,026.6,9.6,0000.0,0004.25,0001.54,0001.08
2023-12-08 01:37:00,SystemResetWarning,0819.3,4.99,000.00,025.2,024.2,000.0,033.5,026.5,9.7,0000.0,0003.87,0001.54,0001.09
2023-12-08 01:38:00,SystemResetWarning,0818.8,5.00,000.00,025.2,024.2,000.0,033.5,026.5,9.6,0000.0,0003.96,0001.56,0001.09
2023-12-08 01:39:00,SystemResetWarning,0819.3,5.00,000.00,025.2,024.2,000.0,033.5,026.5,9.6,0000.0,0003.97,0001.57,0001.09
2023-12-08 01:40:00,SystemResetWarning,0819.1,5.01,000.00,025.2,024.1,000.0,033.5,026.4,9.7,0000.0,0003.96,0001.56,0001.09
2023-12-08 01:41:00,SystemResetWarning,0818.8,5.00,000.00,025.1,024.1,000.0,033.5,026.4,9.7,0000.0,0003.86,0001.53,0001.09
2023-12-08 01:42:00,SystemResetWarning,0818.7,5.00,000.00,025.1,024.1,000.0,033.5,026.4,9.7,0000.0,0002.82,0001.50,0001.08
2023-12-08 01:43:00,SystemResetWarning,0818.7,5.00,000.00,025.1,024.1,000.0,033.5,026.3,9.7,0000.0,0002.49,0001.49,0001.08
2023-12-08 01:44:00,SystemResetWarning,0818.6,5.00,000.00,025.1,024.0,000.0,033.5,026.3,9.7,0000.0,0002.47,0001.49,0001.08
2023-12-08 01:45:00,SystemResetWarning,0818.8,5.00,000.00,025.1,024.0,000.0,033.5,026.3,9.7,0000.0,0002.33,0001.46,0001.07
2023-12-08 01:46:00,SystemResetWarning,0818.7,5.00,000.00,025.0,023.9,000.0,033.4,026.3,9.8,0000.0,0002.21,0001.42,0001.06
2023-12-08 01:47:00,SystemResetWarning,0818.7,5.00,000.00,025.0,023.9,000.0,033.4,026.3,9.7,0000.0,0002.14,0001.41,0001.04
2023-12-08 01:48:00,SystemResetWarning,0818.7,4.99,000.00,025.0,023.9,000.0,033.4,026.3,9.6,0000.0,0002.19,0001.43,0001.04
2023-12-08 01:49:00,SystemResetWarning,0818.7,5.00,000.00,025.0,023.9,000.0,033.4,026.3,9.6,0000.0,0002.35,0001.46,0001.05
2023-12-08 01:50:00,SystemResetWarning,0818.8,5.00,000.00,025.0,023.9,000.0,033.4,026.2,9.6,0000.0,0002.46,0001.49,0001.07
2023-12-08 01:51:00,SystemResetWarning,0818.7,5.00,000.00,025.0,023.9,000.0,033.4,026.2,9.7,0000.0,0003.05,0001.49,0001.07
2023-12-08 01:52:00,SystemResetWarning,0819.0,5.01,000.00,025.0,023.9,000.0,033.4,026.2,9.7,0000.0,0003.13,0001.53,0001.08
2023-12-08 01:53:00,SystemResetWarning,0818.8,5.00,000.00,025.0,023.9,000.0,033.4,026.2,9.7,0000.0,0003.15,0001.54,0001.08
2023-12-08 01:54:00,SystemResetWarning,0819.0,5.01,000.00,024.9,023.9,000.0,033.4,026.0,9.7,0000.0,0003.05,0001.55,0001.08
2023-12-08 01:55:00,SystemResetWarning,0818.7,5.01,000.00,024.9,023.8,000.0,033.3,026.0,9.7,0000.0,0003.07,0001.57,0001.09
2023-12-08 01:56:00,SystemResetWarning,0818.8,5.00,000.00,024.8,023.8,000.0,033.3,025.9,9.7,0000.0,0003.08,0001.57,0001.09
2023-12-08 01:57:00,SystemResetWarning,0819.1,4.99,000.00,024.8,023.8,000.0,033.3,026.0,9.7,0000.0,0003.12,0001.58,0001.10
2023-12-08 01:58:00,SystemResetWarning,0819.2,4.99,000.00,024.8,023.8,000.0,033.3,026.0,9.7,0000.0,0003.07,0001.55,0001.11
2023-12-08 01:59:00,SystemResetWarning,0818.6,5.00,000.00,024.8,023.8,000.0,033.3,026.1,9.8,0000.0,0003.38,0001.59,0001.12
